Theta_e
277 276 276 276 275 275 275 275 275 274 274 275 275 275 275 275 275 275 275 275 274 274 274 274 274 274 274 275 275 276 279 280 280 280 283 286 289 292 294 295 295 294
276 276 275 275 275 275 274 274 274 274 274 274 274 275 275 275 275 275 274 274 274 274 274 273 273 273 273 274 275 276 278 279 279 280 283 285 288 291 294 295 295 294
275 275 275 275 274 274 274 273 273 273 274 274 274 274 274 274 274 274 274 274 274 273 273 273 273 273 273 273 274 276 277 277 278 279 281 283 286 289 293 294 295 294
275 274 274 274 274 273 273 273 273 273 273 273 274 274 274 274 274 274 274 274 273 273 273 273 272 272 272 273 274 275 276 276 277 278 280 282 285 288 292 294 294 294
274 274 274 273 273 272 272 272 272 273 273 273 273 274 274 274 274 274 273 273 273 273 272 272 272 272 272 273 273 274 275 276 277 279 280 282 284 287 291 293 294 294
273 273 273 272 272 272 272 272 272 272 273 273 273 273 273 273 273 273 273 273 272 272 272 272 272 272 272 272 273 274 275 276 277 279 280 281 283 286 289 292 293 294
273 272 272 272 271 271 271 272 272 272 272 273 273 273 273 273 273 273 273 272 272 272 272 272 272 272 272 272 273 274 275 276 277 278 279 281 283 286 289 291 293 294
272 272 271 271 271 271 271 271 272 272 272 272 273 273 273 273 272 272 272 272 271 271 271 271 271 272 272 272 273 274 274 275 276 278 279 282 284 287 289 291 292 293
271 271 271 271 271 271 271 271 271 272 272 272 272 272 272 272 272 271 271 271 270 271 271 271 272 272 273 273 273 274 274 275 276 278 279 281 282 285 289 291 292 293
271 270 270 270 270 271 271 271 271 271 271 271 271 271 271 271 271 270 270 270 270 270 271 271 271 272 272 273 274 274 275 275 277 278 279 280 281 283 287 290 292 292
270 270 270 270 270 270 270 271 271 271 271 271 271 270 270 270 270 269 269 269 269 270 270 271 271 271 271 272 273 273 274 275 276 277 277 278 280 281 284 288 291 291
270 269 269 269 269 269 270 270 270 270 270 270 269 269 269 268 268 269 269 269 269 269 270 270 270 271 271 271 271 272 273 273 274 275 276 277 279 280 282 285 289 291
269 269 269 269 269 269 270 270 270 269 269 269 268 268 268 268 268 268 268 268 269 269 269 270 270 270 271 271 271 272 272 273 274 274 275 276 278 279 281 283 287 290
268 268 268 268 268 269 269 269 268 268 268 267 267 267 267 267 267 267 267 268 268 269 269 270 270 270 270 271 271 272 272 273 274 274 275 276 277 279 281 283 286 289
267 267 267 268 268 268 268 267 267 267 267 267 266 266 267 267 267 267 267 267 268 269 269 270 270 270 270 271 271 272 273 274 275 275 275 276 278 279 281 284 287 289
267 267 267 267 267 267 266 266 266 266 266 266 266 266 266 266 266 267 267 267 268 269 269 270 270 270 271 271 272 273 274 275 277 277 278 278 279 280 282 284 286 288
266 267 267 266 266 265 265 265 265 265 265 265 265 266 266 266 266 267 267 268 268 269 269 270 270 271 271 272 273 274 275 276 276 277 278 279 280 281 282 283 285 287
266 266 265 265 264 264 264 264 264 264 265 265 266 266 266 267 267 267 267 268 269 269 270 270 270 271 272 273 274 274 275 276 276 277 278 279 280 281 282 283 284 286
265 265 264 264 263 264 264 264 264 264 265 265 266 266 267 267 267 267 268 269 269 270 270 270 271 271 272 274 274 275 276 276 277 278 278 279 280 281 282 283 284 285
264 263 263 263 263 263 263 263 264 264 265 266 266 267 267 267 268 268 269 269 270 270 271 271 271 272 273 274 275 275 276 276 277 278 279 280 281 282 282 283 283 285
263 262 262 262 262 263 263 263 264 265 265 266 266 267 267 267 267 268 268 269 270 271 271 271 271 272 273 274 275 276 277 277 277 278 279 280 281 282 283 283 284 285
262 261 261 261 262 262 263 263 264 265 266 266 266 266 266 266 267 267 268 269 270 271 271 272 272 273 274 275 276 277 277 278 278 278 279 280 281 282 283 283 284 285
261 261 261 261 261 262 263 264 264 265 265 265 266 266 266 266 266 267 268 269 270 271 271 272 273 273 275 276 276 277 277 278 278 278 279 280 281 282 283 283 283 284
260 260 260 261 261 262 263 264 264 265 265 265 265 265 265 265 266 267 268 268 270 271 272 273 274 274 275 276 277 277 278 278 278 278 279 279 281 282 283 283 283 283
260 260 260 261 261 262 263 264 264 264 264 264 264 264 264 265 266 266 268 269 270 271 272 274 275 275 276 277 277 278 278 278 278 278 279 280 281 281 282 283 283 284
260 260 261 261 262 262 263 263 264 264 264 264 264 264 264 265 266 267 268 269 270 271 273 274 275 276 277 277 278 278 279 279 279 279 279 281 282 282 283 283 284 284
Wind_Speed
25 26 27 28 29 30 32 36 38 40 42 42 43 47 49 49 50 48 47 45 42 41 41 41 40 40 40 39 38 38 36 34 35 36 35 35 35 35 35 35 33 29
26 26 27 29 31 32 33 35 38 40 42 43 44 47 49 49 50 48 46 44 42 41 42 42 42 41 41 40 39 38 36 35 36 34 33 34 35 34 34 33 33 31
26 26 27 30 32 34 36 37 38 39 41 44 45 46 47 48 49 48 45 42 43 44 44 44 43 41 40 39 38 38 37 37 38 36 34 34 34 35 34 32 32 31
25 26 28 30 32 35 37 38 38 39 40 43 44 44 45 46 46 46 45 42 44 45 44 43 42 40 38 38 37 38 39 39 38 36 35 34 34 34 33 31 31 31
26 27 28 30 32 34 35 36 38 40 40 42 43 43 44 44 44 43 43 42 42 43 43 42 41 40 38 38 38 38 39 39 38 35 33 33 33 33 32 30 30 30
27 28 30 31 33 33 35 36 37 38 39 40 41 42 41 41 40 39 39 40 40 40 41 41 39 38 38 37 37 38 38 38 36 33 32 33 34 33 32 30 29 29
29 30 31 32 33 33 35 36 37 37 38 39 39 39 39 38 37 38 38 39 39 39 38 39 39 38 37 35 35 36 35 35 34 33 32 33 33 34 33 31 29 28
30 32 32 33 34 35 36 36 37 37 36 37 37 37 36 35 35 37 38 36 38 39 37 36 36 36 36 35 35 36 36 36 34 32 31 30 30 32 31 30 27 26
31 32 33 34 34 36 37 37 37 36 35 35 36 35 35 35 34 35 36 34 35 36 34 33 32 32 32 33 34 35 36 36 34 32 30 28 27 28 29 28 26 24
31 32 33 34 35 36 38 37 36 35 35 34 34 34 33 34 34 34 35 34 33 34 33 32 31 30 30 30 30 30 31 30 29 28 27 26 26 27 27 27 25 23
30 32 33 34 36 37 36 36 34 34 34 32 33 34 33 33 34 34 33 32 32 32 32 32 31 31 31 30 30 31 31 30 28 26 27 28 27 27 27 26 24 23
32 35 36 36 36 37 35 34 34 35 35 33 32 34 34 33 33 33 33 33 33 33 33 33 32 31 31 31 30 31 32 32 32 30 30 30 29 28 27 27 26 25
37 39 39 37 37 37 35 35 36 35 34 34 33 33 34 33 33 33 33 33 34 33 32 32 32 31 30 30 30 30 30 31 31 30 30 30 30 29 28 27 27 27
39 39 38 36 34 34 35 36 36 33 32 33 33 33 34 33 33 34 35 34 33 33 33 32 31 31 30 29 29 30 30 30 30 29 29 30 30 30 28 28 29 29
40 37 34 32 31 34 36 36 33 32 34 33 31 32 33 33 35 36 35 35 34 33 32 31 30 30 29 28 28 28 28 28 27 27 27 28 28 28 28 27 28 28
37 33 30 29 32 36 37 36 34 34 36 35 36 36 33 34 41 40 35 34 33 31 31 30 29 28 28 28 29 29 28 28 26 24 24 25 26 26 26 26 26 26
32 30 30 32 35 37 38 37 37 36 37 38 41 41 38 39 43 40 33 31 31 30 30 29 29 29 28 29 30 31 30 29 28 26 24 24 25 25 26 26 26 26
31 31 33 35 36 37 38 38 37 37 38 39 39 40 42 45 43 38 34 31 29 28 28 28 29 30 29 30 30 31 31 30 29 27 26 26 25 24 26 27 26 26
30 32 34 35 36 37 38 37 37 37 38 38 40 41 41 42 41 38 33 29 26 26 27 28 30 30 30 29 30 30 30 30 29 27 27 27 26 25 26 27 27 26
31 33 34 36 37 38 38 37 36 37 38 38 37 37 34 34 35 35 31 27 25 25 25 27 30 30 30 30 29 29 29 28 28 28 27 28 28 26 26 28 28 27
32 33 34 36 37 38 38 37 36 36 37 35 31 30 31 31 32 33 33 31 29 26 25 27 31 31 30 31 31 29 28 27 27 27 27 27 27 26 26 27 28 28
32 34 35 36 37 37 37 37 37 36 35 34 32 31 31 31 32 33 34 34 34 31 26 28 35 36 32 32 32 29 27 25 26 27 26 26 27 27 27 28 27 26
32 33 35 36 36 36 37 37 36 35 34 33 33 33 32 32 33 34 35 35 34 33 30 31 39 42 36 32 32 29 27 24 24 25 25 25 27 27 27 29 29 28
31 32 34 35 35 36 37 37 35 34 33 33 33 33 33 34 33 34 36 35 33 35 35 34 38 43 39 34 32 29 27 24 22 23 24 24 24 25 25 26 27 28
31 31 32 34 35 35 35 36 36 35 34 33 33 33 34 34 34 34 35 35 33 34 34 32 34 40 39 35 31 29 26 24 21 21 22 22 22 23 25 26 26 27
30 31 32 33 34 35 35 35 35 35 35 35 34 33 32 33 34 33 33 35 34 31 30 30 32 36 36 32 30 27 25 24 22 21 21 20 19 20 22 24 24 25
Wind_Direction
313 310 308 305 303 302 302 303 304 303 302 303 303 302 302 302 303 303 301 299 297 296 295 294 292 290 288 286 283 282 278 277 281 283 283 282 282 279 267 258 256 255
312 310 307 304 302 302 301 302 302 301 301 302 302 301 301 302 302 300 298 297 295 294 295 293 291 289 286 284 282 279 278 280 281 281 282 282 283 281 269 259 257 256
311 309 306 303 303 303 303 303 302 301 301 302 302 301 300 300 300 299 296 295 294 294 294 293 290 288 286 282 279 277 278 280 279 279 281 281 281 280 272 261 257 258
309 306 304 303 303 304 305 304 303 302 302 302 302 301 300 299 298 297 295 293 295 294 293 292 289 287 285 281 277 277 278 277 277 278 279 280 279 277 272 262 257 259
308 306 305 305 305 305 304 303 302 304 303 302 302 301 301 299 297 296 294 294 295 294 293 292 289 286 284 280 277 276 276 276 275 275 275 277 278 276 272 263 256 256
309 309 309 308 308 307 305 304 304 305 304 303 302 301 301 299 296 294 294 295 296 294 292 291 288 286 284 280 276 274 273 274 273 273 274 276 276 275 273 264 255 253
311 312 312 311 310 309 307 306 306 306 305 304 303 301 300 298 297 295 292 294 297 294 292 291 287 286 285 279 275 273 271 271 272 273 275 275 274 273 271 263 255 252
315 315 315 314 313 311 310 311 310 308 307 305 303 302 301 298 298 300 294 292 297 294 289 290 287 284 283 278 273 271 270 270 271 272 272 273 275 275 269 260 254 252
317 318 318 317 315 314 314 314 312 310 309 307 303 301 302 299 298 302 299 293 295 294 288 288 287 284 283 278 272 270 267 267 267 266 268 270 275 278 273 260 250 249
320 321 321 320 318 317 316 314 312 312 310 308 305 302 302 302 299 299 299 294 293 293 289 286 286 284 284 281 277 273 268 267 267 265 266 269 271 277 277 264 248 245
322 323 323 321 320 318 317 314 312 313 311 307 306 304 302 303 302 298 298 295 292 292 290 286 284 282 281 281 281 280 277 276 275 271 271 272 271 272 276 270 254 245
325 326 325 324 322 319 317 314 312 312 310 305 304 305 304 303 302 299 296 293 292 291 288 286 284 281 279 278 278 278 277 275 272 270 269 269 269 268 270 272 263 250
329 330 328 325 323 320 315 312 312 310 307 304 303 305 304 302 302 301 297 293 291 290 287 284 283 281 278 277 275 274 272 271 268 266 265 263 265 266 265 267 265 255
330 328 325 321 319 316 312 311 311 307 304 304 304 304 304 302 300 300 298 295 289 286 285 282 280 279 276 274 274 272 269 267 264 261 261 260 260 262 262 262 261 255
329 325 321 318 315 313 312 311 309 306 306 305 302 300 300 301 303 301 297 294 289 284 282 280 277 276 274 271 270 270 268 266 262 256 255 256 257 259 259 258 257 253
326 320 317 316 314 313 313 311 308 308 309 307 306 304 299 300 307 307 299 290 287 283 280 278 275 273 272 269 267 268 268 267 267 261 255 254 255 256 257 257 256 254
322 318 317 317 315 314 313 313 312 310 310 309 309 309 307 305 307 306 299 290 284 282 280 277 274 272 274 272 269 268 268 267 268 267 263 259 255 253 255 257 256 254
321 319 319 318 316 315 315 315 315 313 313 312 311 311 312 311 309 304 298 292 284 279 278 276 274 274 276 275 271 269 268 266 265 264 263 261 257 253 252 254 256 255
323 322 320 318 318 317 316 317 317 316 315 315 314 313 312 311 312 308 300 291 283 279 279 278 277 277 277 275 273 271 268 267 264 261 261 259 256 253 251 251 254 254
325 323 320 319 319 319 318 318 318 318 318 316 315 315 313 313 315 312 305 296 288 281 280 281 280 279 277 275 273 271 268 266 265 262 260 259 255 251 249 250 251 251
326 324 321 320 321 321 320 320 320 320 321 320 318 317 317 316 314 311 308 304 297 287 282 284 286 283 278 277 276 273 269 265 263 263 261 259 257 251 247 248 247 248
327 325 322 321 322 322 321 321 323 324 324 323 322 320 318 316 313 309 307 304 300 293 284 286 293 291 283 278 276 273 271 266 261 261 260 258 258 255 252 251 250 249
327 324 321 321 322 322 322 323 325 325 326 325 324 321 320 318 314 309 305 303 299 295 289 288 295 297 291 283 279 274 270 265 260 260 260 259 258 255 252 252 252 252
326 324 322 321 322 322 323 324 326 326 326 326 323 320 319 317 314 310 307 304 299 297 297 293 294 297 295 288 283 277 269 262 260 260 259 259 260 260 257 254 254 253
326 326 324 323 322 323 324 325 326 326 325 325 323 320 317 317 316 313 310 310 305 300 301 300 298 299 297 290 285 280 270 261 258 259 259 257 254 258 261 259 257 255
330 329 327 325 323 324 326 326 327 327 326 326 324 321 320 319 317 315 313 314 309 301 301 306 306 306 305 297 285 278 272 263 254 252 257 259 252 247 253 255 253 252